| time (UTC) | temp F | wind direction | speed MPH | gust MPH | rain 1hr in | rain 24hr in | rain mn in | humidity % | barometer mb |
| 20260502163059 | 42 | 0.0 | 0.0 | 0.00 | 0.13 | 0.13 | 82 | 1009.9 | |
| 20260502161624 | 41 | 0.0 | 0.0 | 0.00 | 0.13 | 0.13 | 83 | 1010.0 | |
| 20260502151605 | 40 | 0.0 | 0.0 | 0.00 | 0.13 | 0.13 | 87 | 1010.0 | |
| 20260502123055 | 40 | 0.0 | 0.0 | 0.02 | 0.12 | 0.12 | 91 | 1010.1 | |
| 20260502121559 | 40 | 0.0 | 0.0 | 0.01 | 0.11 | 0.11 | 92 | 1009.9 | |
| 20260502114555 | 40 | 0.0 | 0.0 | 0.00 | 0.11 | 0.10 | 92 | 1009.7 | |
| 20260502113055 | 40 | 0.0 | 0.0 | 0.00 | 0.11 | 0.10 | 93 | 1009.8 | |
| 20260502111605 | 40 | 0.0 | 0.0 | 0.00 | 0.11 | 0.10 | 94 | 1009.6 | |
| 20260502110057 | 39 | 0.0 | 0.0 | 0.00 | 0.11 | 0.10 | 94 | 1009.6 | |
| 20260502104553 | 39 | 0.0 | 0.0 | 0.00 | 0.11 | 0.10 | 95 | 1009.6 | |
| 20260502103055 | 39 | 0.0 | 0.0 | 0.00 | 0.11 | 0.10 | 95 | 1009.5 | |
| 20260502101556 | 39 | 0.0 | 0.0 | 0.00 | 0.11 | 0.10 | 95 | 1009.3 | |
| 20260502090113 | 38 | 0.0 | 0.0 | 0.02 | 0.11 | 0.10 | 95 | 1009.6 | |
| 20260502070104 | 38 | 0.0 | 0.0 | 0.01 | 0.06 | 0.05 | 94 | 1009.7 | |
| 20260502064554 | 38 | 0.0 | 0.0 | 0.00 | 0.05 | 0.04 | 93 | 1009.8 | |
| 20260502063057 | 38 | 0.0 | 0.0 | 0.00 | 0.05 | 0.04 | 93 | 1009.9 | |
| 20260502061556 | 38 | 0.0 | 0.0 | 0.00 | 0.05 | 0.04 | 92 | 1009.9 | |
| 20260502060058 | 38 | 0.0 | 0.0 | 0.02 | 0.05 | 0.04 | 91 | 1010.2 | |
| 20260502054555 | 39 | 0.0 | 0.0 | 0.03 | 0.05 | 0.04 | 90 | 1010.3 | |
| 20260502053122 | 39 | 0.0 | 0.0 | 0.03 | 0.05 | 0.04 | 88 | 1010.3 | |
| 20260502051609 | 39 | 0.0 | 0.0 | 0.03 | 0.05 | 0.04 | 87 | 1010.8 | |
| 20260502050057 | 40 | 0.0 | 0.0 | 0.02 | 0.03 | 0.02 | 86 | 1010.5 | |
| 20260502044556 | 40 | 0.0 | 0.0 | 0.01 | 0.02 | 0.01 | 85 | 1010.5 | |
| 20260502043110 | 40 | 0.0 | 0.0 | 0.01 | 0.02 | 0.01 | 81 | 1010.5 | |
| 20260502041633 | 41 | 0.0 | 0.0 | 0.01 | 0.02 | 0.01 | 79 | 1010.4 | |
| 20260502034600 | 43 | 0.0 | 0.0 | 0.00 | 0.01 | 0.01 | 71 | 1010.4 | |
| 20260502033109 | 43 | 0.0 | 0.0 | 0.00 | 0.01 | 0.01 | 64 | 1010.3 | |
| 20260502031556 | 43 | 0.0 | 0.0 | 0.00 | 0.01 | 0.01 | 65 | 1010.3 | |
| 20260502030058 | 43 | 0.0 | 0.0 | 0.00 | 0.01 | 0.01 | 64 | 1010.2 | |
| 20260502024600 | 43 | 0.0 | 0.0 | 0.00 | 0.01 | 0.01 | 63 | 1010.3 | |
| 20260502023059 | 43 | 0.0 | 0.0 | 0.00 | 0.01 | 0.01 | 63 | 1010.4 | |
| 20260502021557 | 44 | 0.0 | 0.0 | 0.00 | 0.01 | 0.01 | 60 | 1010.4 | |
| 20260502020106 | 44 | 0.0 | 0.0 | 0.00 | 0.01 | 0.01 | 58 | 1010.3 | |
| 20260502014558 | 45 | 0.0 | 0.0 | 0.00 | 0.01 | 0.01 | 59 | 1010.4 | |
| 20260502013054 | 45 | 0.0 | 0.0 | 0.00 | 0.01 | 0.01 | 57 | 1010.4 | |
| 20260502011553 | 45 | 0.0 | 0.0 | 0.00 | 0.01 | 0.01 | 55 | 1010.5 | |
| 20260502004601 | 45 | 0.0 | 0.0 | 0.00 | 0.01 | 0.01 | 53 | 1010.3 | |
| 20260502003056 | 46 | 0.0 | 0.0 | 0.00 | 0.01 | 0.01 | 53 | 1010.3 | |
| 20260502001601 | 46 | 0.0 | 0.0 | 0.00 | 0.01 | 0.01 | 52 | 1010.1 | |
| 20260502000057 | 46 | 0.0 | 0.0 | 0.00 | 0.01 | 0.01 | 50 | 1009.8 | |
| 20260501234558 | 46 | 0.0 | 0.0 | 0.00 | 0.01 | 0.01 | 50 | 1009.6 | |
| 20260501233107 | 46 | 0.0 | 0.0 | 0.00 | 0.01 | 0.01 | 48 | 1009.5 | |
| 20260501231628 | 47 | 0.0 | 0.0 | 0.00 | 0.01 | 0.01 | 46 | 1009.3 | |
| 20260501230145 | 47 | 0.0 | 0.0 | 0.00 | 0.01 | 0.01 | 47 | 1009.1 | |
| 20260501224556 | 48 | 0.0 | 0.0 | 0.00 | 0.01 | 0.01 | 44 | 1009.0 | |
| 20260501223117 | 49 | 0.0 | 0.0 | 0.00 | 0.01 | 0.01 | 44 | 1008.9 | |
| 20260501221554 | 50 | 0.0 | 0.0 | 0.00 | 0.01 | 0.01 | 41 | 1008.9 | |
| 20260501220055 | 50 | 0.0 | 0.0 | 0.00 | 0.01 | 0.01 | 42 | 1008.9 | |
| 20260501214558 | 49 | 0.0 | 0.0 | 0.00 | 0.01 | 0.01 | 46 | 1008.8 | |
| 20260501213101 | 49 | 0.0 | 0.0 | 0.00 | 0.01 | 0.01 | 46 | 1008.8 | |
| 20260501211556 | 50 | 0.0 | 0.0 | 0.00 | 0.01 | 0.01 | 43 | 1009.0 | |
| 20260501210058 | 50 | 0.0 | 0.0 | 0.00 | 0.01 | 0.01 | 43 | 1008.8 | |
| 20260501204614 | 51 | 0.0 | 0.0 | 0.00 | 0.01 | 0.01 | 43 | 1008.8 | |
| 20260501203053 | 50 | 0.0 | 0.0 | 0.00 | 0.01 | 0.01 | 42 | 1008.6 | |
| 20260501201608 | 51 | 0.0 | 0.0 | 0.00 | 0.01 | 0.01 | 45 | 1008.5 | |
| 20260501200056 | 52 | 0.0 | 0.0 | 0.00 | 0.01 | 0.01 | 43 | 1008.6 | |
| 20260501194555 | 51 | 0.0 | 0.0 | 0.00 | 0.01 | 0.01 | 42 | 1008.6 | |
| 20260501193054 | 52 | 0.0 | 0.0 | 0.00 | 0.01 | 0.01 | 41 | 1008.8 | |
| 20260501191601 | 53 | 0.0 | 0.0 | 0.00 | 0.01 | 0.01 | 45 | 1008.8 | |
| 20260501190058 | 52 | 0.0 | 0.0 | 0.00 | 0.01 | 0.01 | 41 | 1009.0 | |
| 20260501184553 | 52 | 0.0 | 0.0 | 0.00 | 0.01 | 0.01 | 39 | 1009.0 | |
| 20260501183104 | 51 | 0.0 | 0.0 | 0.00 | 0.01 | 0.01 | 43 | 1009.2 | |
| 20260501181600 | 50 | 0.0 | 0.0 | 0.00 | 0.01 | 0.01 | 47 | 1009.3 |